This demonstration page uses our WeatherBlox Daily Observations layout. Learn more.

Left ArrowRight Arrow

39.08367, -84.50855

Hourly Observations for August 18, 2017

Temp ( °F °C ) Dew Point ( °F °C ) Humidity (%) Winds ( mph kmh ) Pressure ( in mb ) Visibility ( mi km ) Precip ( " mm )
12:53 am 00:53 Cloudy 74 23.3 74 23.3 100 100 SSW 7 11 29.85 1011 10 16.0934 N/A
1:23 am 01:23 Mostly Cloudy 74 23.3 74 23.3 100 100 S 5 7 29.88 1012 10 16.0934 N/A
1:53 am 01:53 Cloudy 75 23.9 74 23.3 96 96 SSW 7 11 29.84 1010 10 16.0934 N/A
2:53 am 02:53 Cloudy 75 23.9 74 23.3 96 96 SSW 6 9 29.82 1010 10 16.0934 N/A
3:53 am 03:53 Mostly Cloudy 74 23.3 74 23.3 100 100 S 3 6 29.83 1010 7 11.26538 N/A
4:11 am 04:11 Cloudy 74 23.3 74 23.3 100 100 SSW 3 6 29.83 1010 7 11.26538 N/A
4:31 am 04:31 Mostly Cloudy 74 23.3 73 22.8 97 97 SSW 3 6 29.83 1010 7 11.26538 N/A
4:53 am 04:53 Mostly Cloudy 74 23.3 74 23.3 100 100 SSW 5 7 29.83 1010 7 11.26538 N/A
5:08 am 05:08 Mostly Cloudy 74 23.3 73 22.8 97 97 SSW 5 7 29.85 1011 8 12.87472 N/A
5:53 am 05:53 Mostly Cloudy 74 23.3 73 22.8 97 97 N N/A 29.85 1011 8 12.87472 N/A
6:53 am 06:53 Clear with Mist and Fog 72 22.2 72 22.2 100 100 N N/A 29.86 1011 6 9.65604 N/A
7:53 am 07:53 Partly Cloudy with Mist and Fog 74 23.3 74 23.3 100 100 N N/A 29.87 1011 6 9.65604 N/A
8:53 am 08:53 Partly Cloudy 77 25 73 22.8 88 88 WSW 10 17 29.88 1012 10 16.0934 N/A
9:53 am 09:53 Partly Cloudy 78 25.6 72 22.2 82 82 W 9 15 29.88 1012 10 16.0934 N/A
10:53 am 10:53 Partly Cloudy 80 26.7 69 20.6 69 69 SW 7 11 29.89 1012 10 16.0934 N/A
11:53 am 11:53 Partly Cloudy 81 27.2 66 18.9 61 61 WNW 9 15 29.9 1012 10 16.0934 N/A
12:53 pm 12:53 Partly Cloudy 82 27.8 65 18.3 56 56 W 10 17 29.9 1012 10 16.0934 N/A
1:53 pm 13:53 Partly Cloudy 83 28.3 64 17.8 53 53 W 12 19 29.9 1012 10 16.0934 N/A
2:53 pm 14:53 Partly Cloudy 84 28.9 65 18.3 53 53 WSW 13 20 29.89 1012 10 16.0934 N/A
3:53 pm 15:53 Partly Cloudy 85 29.4 65 18.3 51 51 W 14 22 29.89 1012 10 16.0934 N/A
4:53 pm 16:53 Partly Cloudy 85 29.4 65 18.3 51 51 W 15 24 29.88 1012 10 16.0934 N/A
5:53 pm 17:53 Partly Cloudy 84 28.9 63 17.2 49 49 W 16 26 29.88 1012 10 16.0934 N/A
6:53 pm 18:53 Mostly Sunny 83 28.3 64 17.8 53 53 W 9 15 29.88 1012 10 16.0934 N/A
7:53 pm 19:53 Sunny 80 26.7 64 17.8 58 58 W 9 15 29.89 1012 10 16.0934 N/A
8:53 pm 20:53 Clear 72 22.2 66 18.9 82 82 S 6 9 29.89 1012 10 16.0934 N/A
9:53 pm 21:53 Clear 70 21.1 66 18.9 87 87 S 5 7 29.91 1013 10 16.0934 N/A
10:53 pm 22:53 Clear 69 20.6 67 19.4 93 93 N N/A 29.92 1013 10 16.0934 N/A
11:53 pm 23:53 Clear 67 19.4 66 18.9 97 97 N N/A 29.92 1013 10 16.0934 N/A

Powered by AerisWeather